Wind_Speed
34 33 32 32 32 33 32 30 28 26 25 24 22 20 20 19 17 17 17 17 17 17 16 15 14 14 14 13 13 13 13 14 14 15 15 15 16 16 17 17 16 15 15 15
34 34 34 34 33 33 33 32 31 29 28 26 25 23 22 21 20 19 20 19 19 19 18 18 17 16 15 15 14 15 15 15 15 16 17 17 16 17 17 18 18 16 16 15
33 34 34 35 35 34 34 33 32 30 29 28 27 26 24 23 22 21 21 21 20 20 19 19 19 18 17 17 17 17 17 16 17 17 17 17 18 19 19 19 18 17 17 16
32 33 34 34 35 35 34 34 33 32 31 30 29 27 26 25 24 23 22 22 23 22 22 21 20 19 19 19 19 19 19 18 18 18 18 19 19 20 21 20 19 18 17 16
33 32 33 35 35 34 35 35 34 33 32 31 30 29 29 27 26 25 25 24 24 24 24 24 23 21 21 21 21 21 21 21 20 20 20 20 21 21 22 21 19 19 18 17
34 33 33 35 34 33 34 36 35 34 33 32 31 30 30 29 28 27 27 27 26 26 26 26 25 24 24 23 23 23 23 22 21 21 20 21 22 22 22 22 21 20 19 18
35 35 35 36 34 33 34 35 34 34 34 33 32 31 30 29 29 28 28 28 27 27 27 27 27 26 26 26 26 25 25 25 24 23 23 23 23 23 22 22 21 21 20 20
36 35 37 37 36 36 36 35 35 34 34 34 34 33 32 31 31 30 29 29 28 28 29 29 29 28 28 28 28 27 27 26 25 25 25 24 24 23 23 22 22 22 21 21
37 37 36 35 35 35 35 35 35 35 35 35 35 35 34 33 33 32 31 31 30 30 31 30 30 30 30 30 30 29 29 28 27 27 26 26 26 26 24 24 24 24 23 23
36 36 36 35 35 35 34 35 35 35 35 35 35 35 36 35 35 34 33 33 32 32 32 31 30 31 31 32 32 31 30 29 29 30 29 28 27 27 26 26 25 24 23 22
35 35 35 35 35 35 35 35 36 36 36 36 35 35 35 35 35 34 34 34 34 34 34 33 33 33 33 34 33 33 32 32 31 31 30 29 29 30 29 27 25 25 24 23
35 34 35 34 34 35 35 34 35 36 36 35 35 35 35 34 35 35 35 34 34 34 34 34 34 34 34 34 34 34 34 33 32 32 31 31 31 30 29 28 27 25 24 24
35 35 35 35 34 35 35 35 35 35 36 36 35 34 34 34 35 35 35 35 35 34 34 34 35 35 34 34 35 34 34 33 33 33 32 32 31 30 28 27 25 24 24 25
35 35 35 35 35 34 35 35 35 36 36 36 36 36 36 35 35 35 34 34 34 35 35 35 35 35 34 34 34 34 34 33 33 33 33 32 31 30 29 29 28 26 26 26
34 34 34 34 34 34 35 35 35 36 36 36 36 36 36 35 35 35 35 34 34 35 35 35 36 35 34 34 35 35 34 34 33 32 31 31 31 30 30 30 29 27 28 28
32 32 32 33 33 34 34 35 35 35 35 35 35 35 35 35 35 35 35 35 35 35 35 35 35 35 34 34 34 34 35 34 33 32 32 30 30 29 29 30 30 29 28 29
31 31 32 32 33 33 34 34 33 33 34 34 34 35 35 35 34 34 34 34 34 35 35 35 35 35 35 35 35 35 35 33 32 30 30 30 29 30 30 31 32 31 30 31
30 30 31 31 31 32 32 32 32 32 32 33 33 34 35 35 35 35 34 34 34 34 34 33 33 33 35 35 35 34 33 33 31 30 30 30 30 30 31 31 31 32 32 33
29 29 30 30 30 30 29 30 31 31 31 32 32 33 33 34 35 35 35 34 34 34 33 33 33 33 34 33 33 33 33 33 32 32 32 31 31 31 32 32 32 33 34 34
27 27 27 28 27 27 27 27 27 28 29 30 30 31 31 32 32 32 33 33 33 33 33 33 33 33 33 33 33 34 33 33 33 32 32 32 31 32 33 33 33 34 34 35
24 24 25 25 25 25 24 24 25 25 26 28 29 29 30 31 31 32 32 32 32 32 33 33 34 34 33 33 33 34 34 34 33 32 32 31 31 31 31 31 32 33 33 33
23 23 23 22 22 22 22 21 22 23 24 25 27 28 29 29 29 29 29 30 31 32 31 31 32 33 33 33 34 34 34 33 32 31 32 32 31 31 31 31 31 32 32 32
21 21 21 21 21 21 20 21 21 22 23 24 25 26 26 27 27 27 27 28 28 29 29 29 31 32 32 33 33 33 33 33 32 31 32 33 32 32 32 32 32 33 33 34
19 19 19 19 20 20 20 21 21 22 23 23 23 23 24 25 25 26 26 26 27 27 28 29 30 31 31 31 31 31 31 31 31 31 32 32 32 32 32 33 33 33 34 33
17 17 17 18 19 20 20 19 19 21 22 23 23 23 24 24 24 25 25 25 26 27 27 28 29 29 29 29 30 30 30 30 30 30 31 31 32 32 33 33 33 34 34 34
14 16 17 17 18 18 19 19 19 20 20 21 22 22 23 23 24 24 24 25 25 26 26 27 28 28 28 28 28 29 29 30 30 30 31 31 31 32 32 33 34 35 35 35
13 14 15 16 17 17 17 18 19 19 19 18 19 20 22 22 23 23 23 23 24 25 25 26 26 26 27 27 28 28 28 29 30 30 31 32 32 32 33 33 34 34 34 34
Wind_Direction
227 229 232 235 235 235 236 238 240 244 245 246 249 250 251 252 254 255 257 262 262 263 267 272 278 283 286 289 296 305 311 315 320 322 321 320 321 323 325 326 323 322 320 316
230 231 233 235 235 235 237 238 241 243 245 245 248 250 252 252 253 254 255 260 260 260 264 270 275 277 279 284 288 295 303 307 316 319 318 317 315 315 318 319 319 316 317 314
232 233 235 236 236 236 238 239 241 243 246 247 247 249 252 254 253 253 255 258 259 262 265 269 273 275 276 280 283 290 296 301 306 312 313 313 312 311 312 313 313 313 314 309
232 234 235 237 237 237 238 240 241 243 245 248 248 249 251 252 252 253 256 257 258 259 262 265 268 271 276 281 284 287 290 296 302 306 309 308 308 308 308 308 307 306 308 307
232 237 239 239 237 237 239 241 241 243 245 246 246 248 249 249 250 252 255 257 257 257 261 265 268 272 275 278 280 283 286 290 295 300 303 305 306 307 306 304 305 305 303 303
233 235 239 242 240 239 241 243 242 243 245 246 246 247 249 250 251 254 254 256 257 254 257 262 266 269 272 276 278 281 284 288 290 294 299 301 302 304 306 300 300 301 301 301
236 238 240 242 242 241 241 243 244 244 245 245 245 246 249 251 252 253 254 255 256 255 256 259 264 267 270 272 276 278 280 286 288 290 292 296 298 300 303 300 299 296 296 298
237 239 242 242 242 242 243 244 244 245 245 246 247 248 249 251 253 253 254 253 253 255 256 258 261 264 267 270 272 273 277 283 285 287 289 291 293 295 297 299 299 298 296 296
237 240 242 244 244 243 243 244 244 245 246 248 249 249 250 252 253 253 253 253 253 254 256 258 260 262 265 269 271 272 274 278 280 284 285 287 291 294 294 295 297 298 295 295
238 240 242 243 244 243 242 242 243 245 247 249 250 251 252 253 253 254 254 254 254 256 257 258 259 262 264 267 270 271 272 275 278 281 284 287 289 291 291 292 292 293 293 292
239 241 242 244 245 244 243 243 244 245 247 249 251 252 253 252 252 253 255 256 257 257 257 257 259 261 264 265 267 269 272 273 277 279 281 282 285 287 288 288 290 290 289 288
239 242 243 244 245 243 243 243 244 245 247 249 251 252 253 253 252 252 254 257 258 260 259 257 258 261 263 264 266 267 270 273 275 276 277 279 282 285 285 286 287 286 285 285
241 242 244 245 245 244 244 243 244 245 247 248 250 251 252 253 254 253 254 256 258 259 260 259 258 261 263 265 266 267 270 271 274 274 274 276 279 282 285 284 284 284 283 283
242 243 244 244 244 245 245 245 245 246 248 249 250 251 252 253 253 254 254 254 256 257 258 259 260 260 262 264 266 267 268 271 273 274 273 273 276 278 280 281 282 281 281 282
243 244 245 244 244 245 246 246 246 247 249 250 251 251 252 252 253 254 254 255 256 258 257 258 260 261 262 263 265 267 269 271 272 274 275 274 274 276 278 278 280 281 281 282
241 242 243 244 245 247 248 247 247 247 248 248 248 249 250 251 252 252 253 255 257 258 257 259 260 262 263 264 268 269 271 272 272 273 273 272 272 273 274 276 277 280 282 284
240 241 242 245 246 248 248 248 248 248 247 246 247 248 249 249 250 252 253 255 257 258 258 258 258 259 261 264 267 270 271 272 270 271 271 272 272 273 274 275 276 277 280 282
242 243 245 244 244 244 246 247 248 248 247 246 247 248 248 249 250 252 253 254 255 257 260 259 259 260 262 264 266 268 270 272 269 268 270 272 273 274 275 275 274 276 279 280
244 245 245 245 245 245 246 248 248 247 246 245 245 246 248 249 251 251 253 253 255 258 259 258 258 261 263 264 265 267 269 271 271 270 270 271 272 273 273 273 274 277 279 279
245 245 244 245 246 247 247 247 246 245 244 245 246 247 248 250 251 252 253 255 256 258 258 258 259 262 264 265 265 266 268 269 270 271 270 269 271 272 273 273 275 278 278 278
243 245 244 245 245 246 246 244 242 243 245 246 246 248 249 251 252 253 255 256 256 257 256 256 259 262 264 265 266 267 269 269 268 268 268 270 273 274 275 275 277 278 279 279
241 242 242 241 241 243 246 247 246 245 246 247 247 247 250 252 253 254 256 257 257 258 258 259 260 261 264 265 267 268 268 267 267 269 270 271 273 275 276 277 278 280 281 281
238 237 237 238 239 241 244 248 250 250 250 250 250 248 247 249 252 255 258 259 259 259 259 260 261 262 264 266 267 267 267 267 268 268 269 271 272 274 275 276 278 279 282 282
235 233 235 238 239 240 243 246 250 252 252 251 251 249 248 249 252 256 258 259 260 260 260 261 263 264 265 266 267 267 268 268 268 268 268 270 271 272 274 274 276 277 280 282
234 235 239 241 242 244 245 246 249 252 253 252 252 249 249 251 254 258 260 262 263 264 264 264 264 265 265 266 268 268 268 267 267 268 269 270 271 272 274 275 277 279 280 281
237 238 240 242 244 246 246 249 252 253 255 254 248 246 250 254 256 259 260 262 263 263 264 266 267 267 266 266 267 268 268 268 268 269 270 270 272 274 275 276 277 279 281 282
236 238 240 243 246 248 250 252 254 254 254 252 250 251 254 256 258 260 262 263 264 266 267 268 268 269 268 268 267 268 269 269 269 269 270 272 273 275 277 278 279 280 281 282
Height
5869 5873 5876 5879 5883 5886 5890 5894 5898 5900 5902 5904 5906 5907 5908 5909 5910 5910 5911 5911 5911 5911 5911 5910 5910 5909 5908 5908 5907 5905 5904 5902 5901 5899 5896 5894 5891 5889 5886 5884 5881 5879 5877 5875
5861 5865 5868 5872 5875 5879 5882 5886 5890 5892 5895 5897 5899 5901 5902 5904 5905 5906 5906 5906 5906 5907 5906 5906 5906 5905 5904 5904 5903 5902 5901 5900 5898 5896 5893 5891 5889 5886 5884 5881 5878 5876 5873 5871
5854 5858 5861 5864 5868 5872 5875 5878 5882 5885 5888 5890 5892 5894 5896 5897 5899 5900 5901 5901 5901 5902 5902 5902 5901 5901 5900 5900 5899 5899 5898 5896 5895 5892 5890 5888 5885 5883 5880 5878 5875 5872 5870 5867
5848 5850 5853 5859 5861 5864 5867 5871 5874 5877 5880 5882 5885 5887 5889 5891 5892 5893 5894 5895 5896 5896 5896 5896 5896 5896 5896 5896 5895 5894 5893 5892 5891 5889 5886 5884 5882 5879 5876 5874 5871 5869 5866 5864
5840 5843 5846 5849 5852 5856 5859 5862 5866 5868 5871 5874 5877 5880 5881 5883 5885 5886 5887 5888 5889 5890 5890 5890 5891 5891 5891 5891 5890 5889 5888 5887 5886 5884 5882 5880 5878 5875 5872 5869 5867 5865 5863 5861
5832 5836 5839 5842 5845 5849 5852 5854 5857 5860 5863 5866 5869 5872 5874 5876 5877 5879 5880 5881 5882 5883 5884 5885 5885 5885 5885 5885 5884 5884 5883 5882 5881 5879 5877 5875 5873 5870 5867 5864 5862 5861 5859 5857
5823 5827 5830 5833 5837 5840 5844 5846 5849 5852 5855 5858 5860 5863 5866 5867 5869 5871 5872 5874 5874 5875 5877 5878 5878 5879 5879 5879 5878 5877 5877 5876 5875 5873 5872 5870 5867 5865 5862 5860 5858 5856 5854 5852
5815 5819 5823 5824 5828 5832 5835 5838 5840 5843 5846 5849 5851 5854 5857 5859 5860 5862 5864 5866 5867 5868 5869 5870 5870 5871 5872 5872 5871 5870 5870 5869 5868 5867 5865 5863 5861 5859 5857 5854 5853 5851 5849 5847
5806 5811 5813 5816 5819 5822 5825 5829 5831 5834 5837 5840 5842 5845 5848 5850 5852 5853 5855 5857 5858 5859 5860 5861 5862 5863 5864 5864 5863 5863 5863 5863 5862 5860 5858 5857 5855 5853 5850 5848 5847 5845 5843 5841
5797 5800 5803 5806 5809 5813 5816 5819 5822 5825 5828 5830 5833 5835 5838 5840 5842 5844 5846 5847 5849 5850 5851 5852 5854 5854 5855 5855 5856 5856 5856 5855 5854 5852 5850 5849 5848 5846 5844 5842 5840 5838 5837 5835
5787 5791 5794 5797 5800 5804 5807 5810 5813 5816 5818 5821 5823 5826 5828 5830 5832 5834 5836 5838 5839 5841 5842 5843 5844 5845 5846 5846 5847 5847 5847 5846 5845 5844 5843 5842 5840 5838 5837 5835 5833 5831 5830 5828
5778 5782 5785 5788 5791 5794 5797 5801 5803 5806 5809 5811 5813 5816 5818 5820 5822 5824 5826 5828 5830 5831 5832 5834 5835 5836 5836 5837 5838 5838 5837 5837 5836 5835 5835 5834 5832 5830 5828 5827 5825 5823 5822 5821
5769 5772 5775 5778 5781 5784 5787 5790 5793 5796 5799 5801 5804 5806 5808 5810 5812 5814 5816 5818 5820 5821 5823 5824 5825 5826 5826 5827 5828 5827 5828 5827 5827 5826 5826 5825 5823 5822 5820 5818 5817 5815 5814 5814
5759 5762 5765 5769 5771 5774 5777 5780 5783 5786 5789 5791 5794 5796 5798 5800 5802 5804 5806 5808 5810 5811 5813 5814 5815 5816 5817 5817 5817 5817 5817 5817 5817 5817 5816 5815 5814 5813 5812 5811 5810 5808 5807 5806
5750 5753 5756 5759 5761 5764 5767 5770 5773 5775 5778 5781 5783 5785 5788 5790 5792 5794 5796 5798 5800 5801 5802 5804 5805 5806 5807 5807 5807 5807 5807 5807 5807 5807 5806 5805 5804 5804 5804 5803 5802 5801 5800 5798
5740 5743 5746 5749 5752 5754 5757 5759 5762 5765 5767 5770 5772 5775 5777 5779 5781 5783 5785 5787 5789 5791 5792 5793 5794 5796 5796 5796 5797 5797 5797 5797 5796 5796 5796 5795 5795 5795 5795 5794 5793 5793 5792 5790
5731 5734 5736 5739 5741 5744 5746 5749 5751 5754 5756 5759 5762 5764 5766 5768 5771 5773 5775 5777 5778 5780 5781 5782 5784 5785 5785 5786 5787 5787 5787 5786 5786 5785 5786 5786 5786 5786 5785 5784 5784 5784 5783 5781
5721 5724 5726 5728 5731 5733 5736 5738 5740 5743 5746 5749 5751 5753 5755 5758 5760 5762 5764 5766 5767 5769 5770 5771 5772 5774 5775 5776 5776 5776 5776 5776 5776 5776 5776 5776 5777 5776 5776 5775 5775 5774 5773 5771
5711 5714 5716 5718 5721 5723 5726 5728 5730 5733 5736 5738 5741 5743 5745 5747 5749 5751 5754 5755 5757 5758 5759 5760 5762 5763 5764 5765 5765 5765 5766 5766 5766 5766 5766 5766 5766 5766 5765 5765 5764 5763 5762 5761
5702 5704 5707 5709 5712 5714 5716 5719 5721 5724 5727 5729 5732 5734 5736 5738 5739 5741 5743 5745 5746 5748 5749 5750 5751 5753 5753 5754 5755 5755 5755 5756 5756 5756 5756 5756 5756 5756 5755 5754 5754 5752 5751 5750
5695 5696 5699 5701 5704 5707 5709 5711 5713 5716 5718 5720 5723 5725 5727 5729 5730 5732 5733 5735 5736 5737 5739 5740 5741 5742 5743 5744 5744 5744 5745 5745 5745 5745 5746 5746 5746 5745 5745 5744 5743 5742 5741 5739
5688 5690 5692 5695 5697 5700 5702 5704 5706 5708 5710 5712 5714 5716 5718 5720 5721 5723 5724 5726 5727 5727 5728 5730 5731 5732 5733 5733 5734 5734 5735 5735 5735 5735 5735 5736 5736 5735 5734 5733 5732 5731 5730 5729
5682 5684 5687 5689 5692 5694 5696 5698 5700 5702 5703 5705 5707 5708 5710 5712 5714 5715 5716 5717 5718 5718 5719 5720 5721 5722 5723 5724 5724 5724 5725 5725 5725 5725 5726 5726 5725 5725 5724 5723 5722 5721 5720 5718
5678 5680 5682 5684 5687 5689 5691 5693 5694 5696 5697 5698 5699 5701 5703 5705 5706 5707 5708 5709 5710 5710 5711 5712 5712 5713 5713 5714 5714 5714 5715 5715 5715 5715 5715 5715 5715 5715 5714 5713 5712 5711 5709 5708
5674 5677 5678 5680 5682 5684 5686 5688 5689 5690 5691 5692 5693 5694 5696 5697 5699 5700 5701 5701 5702 5702 5703 5703 5703 5704 5704 5704 5705 5705 5705 5706 5706 5705 5705 5705 5705 5704 5704 5703 5701 5700 5699 5697
5671 5673 5675 5676 5678 5679 5681 5683 5684 5684 5685 5686 5687 5688 5690 5691 5692 5693 5693 5693 5694 5694 5695 5695 5695 5695 5695 5696 5696 5696 5696 5696 5696 5696 5695 5695 5694 5694 5693 5692 5691 5689 5688 5686
5669 5670 5671 5672 5673 5675 5676 5677 5678 5679 5680 5681 5682 5683 5684 5685 5685 5686 5686 5686 5686 5687 5687 5687 5687 5687 5687 5687 5687 5687 5687 5686 5686 5686 5686 5685 5684 5683 5682 5681 5680 5679 5677 5675